Hibbing, MN

1:26 PM CDT on April 23, 2017 (GMT -0500)
Chisholm-hibbing

Weather History for KHIB - April, 2013

Change the Weather History Date:

Friday, April 12, 2013

  Actual Average Record
Temperature  
Mean Temperature 27 °F -  
Max Temperature 32 °F 47 °F 75 °F (2015)
Min Temperature 24 °F 27 °F 12 °F (1992)
Degree Days  
Heating Degree Days 38    
Moisture  
Dew Point 20 °F    
Average Humidity 75    
Maximum Humidity 86    
Minimum Humidity 61    
Precipitation  
Precipitation 0.06 in - - ()
Sea Level Pressure  
Sea Level Pressure 29.81 in    
Wind  
Wind Speed 9 mph (NE)    
Max Wind Speed 15 mph    
Max Gust Speed 22 mph    
Visibility 3 miles    
Events Snow    
Averages and records for this station are not official NWS values.
T = Trace of Precipitation, MM = Missing Value Source: NWS Daily Summary

Daily Weather History Graph

Daily Weather History Graph

Search for Another Location

Airport or City:

Trip Planner

Search our weather history database for the weather conditions in past years. The results will help you decide how hot, cold, wet, or windy it might be!

Date:

Astronomy

Apr. 12, 2013 Rise Set
Actual Time 6:28 AM CDT 7:56 PM CDT
Civil Twilight 5:56 AM CDT 8:28 PM CDT
Nautical Twilight 5:17 AM CDT 9:07 PM CDT
Astronomical Twilight 4:35 AM CDT 9:49 PM CDT
Moon 7:29 AM CDT (4/12) 10:38 PM CDT (4/12)
Length of Visible Light 14h 32m
Length of Day
13h 28m
Waxing Crescent, 5% of the Moon is Illuminated
Apr 12
Waxing Crescent
Apr 18
First Quarter
Apr 25
Full
May 2
Last Quarter
May 9
New

Hourly Weather History & Observations

Time (CDT) Temp. Windchill Dew Point Humidity Pressure Visibility Wind Dir Wind Speed Gust Speed Precip Events Conditions
12:05 AM 28.4 °F 21.2 °F 21.2 °F 74% 29.84 in 2.5 mi NE 6.9 mph - 0.00 in Snow Light Snow
12:10 AM 28.4 °F 19.7 °F 21.2 °F 74% 29.84 in 3.0 mi ENE 9.2 mph - 0.00 in Snow Light Snow
12:17 AM 28.4 °F 19.7 °F 21.2 °F 74% 29.84 in 2.0 mi NE 9.2 mph - 0.00 in Snow Light Snow
12:25 AM 28.4 °F 22.2 °F 21.2 °F 74% 29.84 in 1.5 mi NE 5.8 mph - 0.00 in Snow Light Snow
12:53 AM 27.0 °F 19.5 °F 23.0 °F 85% 29.89 in 1.0 mi NNE 6.9 mph - 0.02 in Snow Light Snow
1:11 AM 26.6 °F 18.2 °F 23.0 °F 86% 29.82 in 0.8 mi NE 8.1 mph - 0.00 in Snow Light Snow
1:19 AM 26.6 °F 18.2 °F 23.0 °F 86% 29.81 in 1.0 mi NE 8.1 mph - 0.01 in Snow Light Snow
1:40 AM 26.6 °F 16.8 °F 21.2 °F 80% 29.81 in 3.0 mi NE 10.4 mph - 0.01 in Snow Light Snow
1:51 AM 26.6 °F 16.8 °F 21.2 °F 80% 29.80 in 3.0 mi NE 10.4 mph - 0.01 in Snow Light Snow
1:53 AM 27.0 °F 17.3 °F 21.9 °F 81% 29.87 in 3.0 mi NE 10.4 mph - 0.01 in Snow Light Snow
2:03 AM 26.6 °F 17.5 °F 21.2 °F 80% 29.80 in 2.5 mi NE 9.2 mph - 0.00 in Snow Light Snow
2:29 AM 26.6 °F 15.2 °F 21.2 °F 80% 29.79 in 1.8 mi NE 13.8 mph 20.7 mph 0.00 in Snow Light Snow
2:53 AM 27.0 °F 18.0 °F 21.9 °F 81% 29.84 in 2.0 mi NE 9.2 mph 18.4 mph 0.01 in Snow Light Snow
3:11 AM 26.6 °F 16.8 °F 21.2 °F 80% 29.78 in 1.5 mi ENE 10.4 mph 19.6 mph 0.00 in Snow Light Snow
3:45 AM 26.6 °F 17.5 °F 21.2 °F 80% 29.78 in 1.0 mi NE 9.2 mph 20.7 mph 0.00 in Snow Light Snow
3:53 AM 27.0 °F 17.3 °F 21.9 °F 81% 29.84 in 1.0 mi NE 10.4 mph 17.3 mph 0.00 in Snow Light Snow
3:59 AM 26.6 °F 16.8 °F 21.2 °F 80% 29.77 in 2.0 mi NE 10.4 mph 17.3 mph 0.00 in Snow Light Snow
4:10 AM 26.6 °F 16.2 °F 21.2 °F 80% 29.78 in 4.0 mi NE 11.5 mph 19.6 mph 0.00 in Snow Light Snow
4:53 AM 27.0 °F 18.0 °F 19.9 °F 75% 29.84 in 7.0 mi NE 9.2 mph 19.6 mph 0.00 in Snow Light Snow
5:27 AM 26.6 °F 16.2 °F 19.4 °F 74% 29.77 in 2.5 mi NE 11.5 mph 19.6 mph 0.00 in Snow Light Snow
5:40 AM 26.6 °F 15.2 °F 19.4 °F 74% 29.77 in 3.0 mi NE 13.8 mph 21.9 mph 0.00 in Snow Light Snow
5:53 AM 27.0 °F 16.7 °F 19.9 °F 75% 29.83 in 5.0 mi NE 11.5 mph 18.4 mph 0.00 in Snow Light Snow
6:22 AM 26.6 °F 17.5 °F 19.4 °F 74% 29.77 in 2.5 mi NE 9.2 mph 18.4 mph 0.00 in Snow Light Snow
6:30 AM 26.6 °F 16.8 °F 19.4 °F 74% 29.77 in 2.0 mi NE 10.4 mph - 0.00 in Snow Light Snow
6:44 AM 26.6 °F 16.8 °F 19.4 °F 74% 29.77 in 1.2 mi NE 10.4 mph 20.7 mph 0.00 in Snow Light Snow
6:53 AM 26.1 °F 15.6 °F 21.0 °F 81% 29.83 in 0.8 mi NE 11.5 mph - 0.00 in Snow Light Snow
7:06 AM 26.6 °F 16.8 °F 21.2 °F 80% 29.77 in 1.0 mi NNE 10.4 mph - 0.00 in Snow Light Snow
7:32 AM 26.6 °F 18.2 °F 21.2 °F 80% 29.77 in 0.8 mi NE 8.1 mph - 0.00 in Snow Light Snow
7:42 AM 26.6 °F 17.5 °F 21.2 °F 80% 29.77 in 1.0 mi NE 9.2 mph - 0.01 in Snow Light Snow
7:53 AM 26.1 °F 16.2 °F 21.0 °F 81% 29.83 in 1.0 mi NE 10.4 mph - 0.01 in Snow Light Snow
8:53 AM 26.1 °F 14.5 °F 19.9 °F 78% 29.83 in 1.8 mi NE 13.8 mph - 0.00 in Snow Light Snow
9:00 AM 26.6 °F 17.5 °F 19.4 °F 74% 29.77 in 2.0 mi NE 9.2 mph 17.3 mph 0.00 in Snow Light Snow
9:15 AM 26.6 °F 16.8 °F 19.4 °F 74% 29.77 in 1.5 mi NNE 10.4 mph 17.3 mph 0.00 in Snow Light Snow
9:37 AM 26.6 °F 17.5 °F 19.4 °F 74% 29.77 in 2.5 mi NNE 9.2 mph - 0.00 in Snow Light Snow
9:45 AM 26.6 °F 17.5 °F 19.4 °F 74% 29.77 in 3.0 mi NE 9.2 mph - 0.00 in Snow Light Snow
9:53 AM 27.0 °F 16.7 °F 19.9 °F 75% 29.83 in 3.0 mi NNE 11.5 mph 18.4 mph 0.00 in Snow Light Snow
10:07 AM 26.6 °F 16.2 °F 19.4 °F 74% 29.78 in 2.5 mi NNE 11.5 mph - 0.00 in Snow Light Snow
10:12 AM 26.6 °F 17.5 °F 19.4 °F 74% 29.78 in 1.8 mi NE 9.2 mph - 0.00 in Snow Light Snow
10:42 AM 28.4 °F 18.5 °F 19.4 °F 69% 29.78 in 2.5 mi NE 11.5 mph 20.7 mph 0.00 in Snow Light Snow
10:50 AM 28.4 °F 18.5 °F 19.4 °F 69% 29.78 in 4.0 mi ENE 11.5 mph - 0.00 in Snow Light Snow
10:53 AM 28.0 °F 17.5 °F 19.0 °F 69% 29.84 in 4.0 mi ENE 12.7 mph 18.4 mph 0.00 in Snow Light Snow
11:14 AM 28.4 °F 18.0 °F 19.4 °F 69% 29.79 in 4.0 mi NE 12.7 mph - 0.00 in Snow Light Snow
11:41 AM 28.4 °F 17.0 °F 19.4 °F 69% 29.79 in 2.5 mi NE 15.0 mph - 0.00 in Snow Light Snow
11:49 AM 28.4 °F 19.7 °F 19.4 °F 69% 29.79 in 1.2 mi NE 9.2 mph - 0.00 in Snow Light Snow
11:53 AM 28.0 °F 20.8 °F 19.9 °F 72% 29.85 in 1.2 mi NE 6.9 mph - 0.00 in Snow Light Snow
12:17 PM 28.4 °F 19.7 °F 21.2 °F 74% 29.79 in 0.8 mi NE 9.2 mph - 0.00 in Snow Light Snow
12:31 PM 28.4 °F 18.5 °F 21.2 °F 74% 29.79 in 1.0 mi NNE 11.5 mph 16.1 mph 0.00 in Snow Light Snow
12:38 PM 28.4 °F 20.4 °F 21.2 °F 74% 29.79 in 1.0 mi NE 8.1 mph - 0.00 in Snow Light Snow
12:53 PM 28.9 °F 21.1 °F 21.0 °F 72% 29.85 in 1.8 mi East 8.1 mph - 0.00 in Snow Light Snow
1:00 PM 30.2 °F 23.4 °F 21.2 °F 69% 29.78 in 2.0 mi NNE 6.9 mph - 0.00 in Snow Light Snow
1:31 PM 30.2 °F 20.2 °F 19.4 °F 64% 29.78 in 3.0 mi NE 12.7 mph 20.7 mph 0.00 in Snow Light Snow
1:53 PM 30.0 °F 21.7 °F 19.0 °F 64% 29.84 in 5.0 mi NE 9.2 mph - 0.00 in Snow Light Snow
2:06 PM 30.2 °F 20.8 °F 21.2 °F 69% 29.78 in 2.0 mi NNE 11.5 mph 17.3 mph 0.00 in Snow Light Snow
2:11 PM 30.2 °F 22.6 °F 21.2 °F 69% 29.78 in 1.5 mi NE 8.1 mph 17.3 mph 0.00 in Snow Light Snow
2:17 PM 30.2 °F 21.3 °F 19.4 °F 64% 29.78 in 3.0 mi NNE 10.4 mph - 0.00 in Snow Light Snow
2:53 PM 30.9 °F 24.3 °F 19.0 °F 61% 29.84 in 9.0 mi NE 6.9 mph - 0.00 in Snow Light Snow
3:53 PM 30.9 °F 24.3 °F 19.9 °F 64% 29.85 in 7.0 mi NE 6.9 mph - 0.00 in Snow Light Snow
4:25 PM 30.2 °F 21.9 °F 21.2 °F 69% 29.78 in 2.5 mi NE 9.2 mph - 0.00 in Snow Light Snow
4:44 PM 30.2 °F 21.3 °F 19.4 °F 64% 29.79 in 5.0 mi North 10.4 mph - 0.00 in Snow Light Snow
4:53 PM 30.0 °F 22.4 °F 21.0 °F 69% 29.85 in 7.0 mi North 8.1 mph - 0.00 in   Overcast
5:35 PM 30.2 °F 25.4 °F 21.2 °F 69% 29.80 in 2.5 mi Variable 4.6 mph - 0.00 in Snow Light Snow
5:42 PM 28.4 °F 22.2 °F 21.2 °F 74% 29.80 in 4.0 mi NE 5.8 mph - 0.00 in Snow Light Snow
5:53 PM 30.0 °F 24.1 °F 21.0 °F 69% 29.86 in 5.0 mi NE 5.8 mph - 0.00 in Snow Light Snow
6:09 PM 28.4 °F 20.4 °F 21.2 °F 74% 29.80 in 2.0 mi North 8.1 mph - 0.00 in Snow Light Snow
6:16 PM 28.4 °F 22.2 °F 21.2 °F 74% 29.80 in 3.0 mi NNE 5.8 mph - 0.00 in Snow Light Snow
6:44 PM 28.4 °F 19.1 °F 21.2 °F 74% 29.80 in 2.5 mi North 10.4 mph - 0.00 in Snow Light Snow
6:49 PM 28.4 °F 20.4 °F 21.2 °F 74% 29.80 in 1.8 mi NNE 8.1 mph - 0.00 in Snow Light Snow
6:53 PM 28.0 °F 20.8 °F 21.9 °F 78% 29.87 in 1.5 mi NE 6.9 mph - 0.00 in Snow Light Snow
7:01 PM 28.4 °F 21.2 °F 21.2 °F 74% 29.80 in 3.0 mi NE 6.9 mph - 0.00 in Snow Light Snow
7:12 PM 28.4 °F 22.2 °F 21.2 °F 74% 29.80 in 5.0 mi NNE 5.8 mph - 0.00 in Snow Light Snow
7:25 PM 28.4 °F 20.4 °F 19.4 °F 69% 29.80 in 7.0 mi NE 8.1 mph - 0.00 in Snow Light Snow
7:53 PM 28.0 °F 19.3 °F 19.9 °F 72% 29.87 in 5.0 mi NE 9.2 mph - 0.00 in Snow Light Snow
8:03 PM 28.4 °F 21.2 °F 21.2 °F 74% 29.80 in 1.8 mi North 6.9 mph - 0.00 in Snow Light Snow
8:11 PM 26.6 °F 19.1 °F 21.2 °F 80% 29.80 in 2.0 mi NNE 6.9 mph - 0.00 in Snow Light Snow
8:19 PM 26.6 °F 20.0 °F 21.2 °F 80% 29.81 in 2.5 mi NNE 5.8 mph - 0.00 in Snow Light Snow
8:42 PM 26.6 °F 17.5 °F 21.2 °F 80% 29.81 in 1.8 mi NNE 9.2 mph - 0.00 in Snow Light Snow
8:53 PM 26.1 °F 16.8 °F 19.9 °F 78% 29.88 in 1.5 mi NE 9.2 mph - 0.00 in Snow Light Snow
9:26 PM 24.8 °F 16.9 °F 19.4 °F 80% 29.83 in 2.5 mi NE 6.9 mph - 0.00 in Snow Light Snow
9:44 PM 24.8 °F 17.9 °F 19.4 °F 80% 29.83 in 2.5 mi NNE 5.8 mph - 0.01 in Snow Light Snow
9:53 PM 25.0 °F 18.1 °F 19.9 °F 81% 29.89 in 2.5 mi North 5.8 mph - 0.01 in Snow Light Snow
10:09 PM 24.8 °F 17.9 °F 19.4 °F 80% 29.83 in 3.0 mi NE 5.8 mph - 0.00 in Snow Light Snow
10:26 PM 24.8 °F 19.1 °F 19.4 °F 80% 29.83 in 2.0 mi North 4.6 mph - 0.00 in Snow Light Snow
10:40 PM 24.8 °F 15.3 °F 17.6 °F 74% 29.83 in 3.0 mi NNE 9.2 mph - 0.00 in Snow Light Snow
10:53 PM 24.1 °F 15.2 °F 18.0 °F 77% 29.89 in 3.0 mi NNE 8.1 mph - 0.00 in Snow Light Snow
11:53 PM 24.1 °F 17.0 °F 18.0 °F 77% 29.89 in 3.0 mi NNE 5.8 mph - 0.00 in Snow Light Snow